WAT2476 KBMC-KSLC

Flight info

Callsign WAT2476
Flight time 0h 19m
Altitude 9000
Route DCT
Aircraft C208/L-SDFGR/C

Departure

Time 2026-05-08 04:24
Airport Brigham City Regional Airport (KBMC)

Arrival

Time 2026-05-08 04:43
Airport Salt Lake City International Airport (KSLC)
Time Latitude Longitude Altitude Speed Heading
2026-05-08 04:13 41.54604 -112.06433 4239 ft 0 kts
2026-05-08 04:18 41.54607 -112.06433 4239 ft 4 kts
2026-05-08 04:19 41.54687 -112.06431 4238 ft 8 kts 27°
2026-05-08 04:19 41.54718 -112.06368 4238 ft 8 kts 26°
2026-05-08 04:19 41.54777 -112.06366 4237 ft 9 kts 358°
2026-05-08 04:19 41.54841 -112.06368 4238 ft 9 kts 359°
2026-05-08 04:20 41.54945 -112.06369 4240 ft 21 kts 359°
2026-05-08 04:20 41.55092 -112.06369 4238 ft 21 kts 359°
2026-05-08 04:20 41.55238 -112.06372 4238 ft 20 kts 359°
2026-05-08 04:20 41.55366 -112.06373 4240 ft 18 kts 359°
2026-05-08 04:21 41.55491 -112.06374 4237 ft 18 kts 359°
2026-05-08 04:21 41.55615 -112.06376 4238 ft 17 kts 360°
2026-05-08 04:21 41.55723 -112.06377 4240 ft 15 kts 359°
2026-05-08 04:21 41.55825 -112.06374 4238 ft 10 kts 19°
2026-05-08 04:22 41.55838 -112.06316 4239 ft 6 kts 90°
2026-05-08 04:22 41.55838 -112.06270 4240 ft 4 kts 101°
2026-05-08 04:22 41.55802 -112.06230 4241 ft 11 kts 169°
2026-05-08 04:22 41.55661 -112.06231 4240 ft 46 kts 182°
2026-05-08 04:23 41.55113 -112.06223 4237 ft 105 kts 179°
2026-05-08 04:23 41.54302 -112.06223 4348 ft 125 kts 180°
2026-05-08 04:23 41.53383 -112.06242 4529 ft 137 kts 181°
2026-05-08 04:23 41.52404 -112.06264 4741 ft 143 kts 180°
2026-05-08 04:24 41.51400 -112.06182 4953 ft 146 kts 171°
2026-05-08 04:24 41.50391 -112.05947 5162 ft 148 kts 170°
2026-05-08 04:24 41.49371 -112.05711 5368 ft 150 kts 170°
2026-05-08 04:24 41.48342 -112.05476 5571 ft 151 kts 172°
2026-05-08 04:25 41.47308 -112.05323 5770 ft 152 kts 174°
2026-05-08 04:25 41.46255 -112.05166 5967 ft 154 kts 174°
2026-05-08 04:25 41.45189 -112.05000 6166 ft 155 kts 174°
2026-05-08 04:25 41.44118 -112.04822 6369 ft 155 kts 174°
2026-05-08 04:26 41.43040 -112.04632 6497 ft 160 kts 174°
2026-05-08 04:26 41.41910 -112.04416 6505 ft 168 kts 170°
2026-05-08 04:26 41.40766 -112.04020 6508 ft 172 kts 165°
2026-05-08 04:26 41.39618 -112.03504 6510 ft 175 kts 160°
2026-05-08 04:27 41.38480 -112.02895 6507 ft 178 kts 159°
2026-05-08 04:27 41.37331 -112.02275 6509 ft 179 kts 159°
2026-05-08 04:27 41.36175 -112.01650 6509 ft 179 kts 159°
2026-05-08 04:27 41.35019 -112.01023 6509 ft 179 kts 159°
2026-05-08 04:28 41.33870 -112.00408 6514 ft 176 kts 159°
2026-05-08 04:28 41.32735 -111.99814 6509 ft 175 kts 160°
2026-05-08 04:28 41.31985 -111.99407 6505 ft 177 kts 159°
2026-05-08 04:28 41.30476 -111.98580 6503 ft 177 kts 159°
2026-05-08 04:29 41.29338 -111.97960 6503 ft 177 kts 159°
2026-05-08 04:29 41.28197 -111.97338 6502 ft 177 kts 159°
2026-05-08 04:29 41.27428 -111.96918 6502 ft 177 kts 159°
2026-05-08 04:29 41.26303 -111.96304 6503 ft 177 kts 159°
2026-05-08 04:30 41.25160 -111.95680 6503 ft 177 kts 159°
2026-05-08 04:30 41.23984 -111.95199 6504 ft 177 kts 171°
2026-05-08 04:30 41.22774 -111.94939 6506 ft 176 kts 176°
2026-05-08 04:30 41.21554 -111.94824 6507 ft 176 kts 178°
2026-05-08 04:31 41.20331 -111.94748 6508 ft 176 kts 180°
2026-05-08 04:31 41.19105 -111.94701 6508 ft 176 kts 180°
2026-05-08 04:31 41.17900 -111.94451 6499 ft 177 kts 162°
2026-05-08 04:31 41.16774 -111.93783 6500 ft 178 kts 154°
2026-05-08 04:32 41.15681 -111.93009 6500 ft 178 kts 153°
2026-05-08 04:32 41.14589 -111.92231 6512 ft 177 kts 153°
2026-05-08 04:32 41.13458 -111.91662 6512 ft 175 kts 168°
2026-05-08 04:32 41.12267 -111.91386 6511 ft 173 kts 175°
2026-05-08 04:33 41.11073 -111.91221 6511 ft 172 kts 177°
2026-05-08 04:33 41.09875 -111.91131 6513 ft 172 kts 179°
2026-05-08 04:33 41.08672 -111.91071 6512 ft 172 kts 181°
2026-05-08 04:33 41.07469 -111.91050 6514 ft 173 kts 181°
2026-05-08 04:34 41.06266 -111.91032 6514 ft 173 kts 181°
2026-05-08 04:34 41.05062 -111.91014 6514 ft 173 kts 181°
2026-05-08 04:34 41.03859 -111.90996 6514 ft 173 kts 181°
2026-05-08 04:34 41.02653 -111.90985 6513 ft 173 kts 181°
2026-05-08 04:35 41.01466 -111.90911 6509 ft 173 kts 174°
2026-05-08 04:35 41.00287 -111.90589 6510 ft 173 kts 167°
2026-05-08 04:35 40.99128 -111.90164 6508 ft 173 kts 165°
2026-05-08 04:35 40.97970 -111.89719 6509 ft 172 kts 165°
2026-05-08 04:36 40.96812 -111.89280 6509 ft 173 kts 167°
2026-05-08 04:36 40.95629 -111.89026 6510 ft 172 kts 178°
2026-05-08 04:36 40.94435 -111.88950 6510 ft 172 kts 179°
2026-05-08 04:36 40.93240 -111.88921 6511 ft 172 kts 184°
2026-05-08 04:37 40.92053 -111.89080 6513 ft 171 kts 190°
2026-05-08 04:37 40.90874 -111.89346 6507 ft 171 kts 193°
2026-05-08 04:37 40.89720 -111.89658 6508 ft 171 kts 193°
2026-05-08 04:37 40.88553 -111.89976 6507 ft 171 kts 193°
2026-05-08 04:38 40.87399 -111.90363 6508 ft 171 kts 197°
2026-05-08 04:38 40.86254 -111.90785 6508 ft 171 kts 197°
2026-05-08 04:38 40.85105 -111.91209 6507 ft 171 kts 197°
2026-05-08 04:38 40.83957 -111.91634 6496 ft 171 kts 196°
2026-05-08 04:39 40.82782 -111.91895 6492 ft 171 kts 185°
2026-05-08 04:39 40.81584 -111.91827 6488 ft 172 kts 174°
2026-05-08 04:39 40.80395 -111.91603 6488 ft 172 kts 173°
2026-05-08 04:39 40.79209 -111.91375 6488 ft 172 kts 173°
2026-05-08 04:40 40.78036 -111.91147 6487 ft 172 kts 173°
2026-05-08 04:40 40.76852 -111.90917 6487 ft 171 kts 173°
2026-05-08 04:40 40.75677 -111.90688 6484 ft 169 kts 173°
2026-05-08 04:40 40.74544 -111.90725 6365 ft 159 kts 199°
2026-05-08 04:41 40.73675 -111.91574 6093 ft 161 kts 237°
2026-05-08 04:41 40.73345 -111.92972 5711 ft 164 kts 266°
2026-05-08 04:41 40.73527 -111.94398 5504 ft 146 kts 291°
2026-05-08 04:41 40.74111 -111.95395 5227 ft 136 kts 323°
2026-05-08 04:42 40.74959 -111.95976 4824 ft 136 kts 341°
2026-05-08 04:42 40.75857 -111.96204 4573 ft 128 kts 358°
2026-05-08 04:42 40.76712 -111.96224 4411 ft 119 kts
2026-05-08 04:42 40.77506 -111.96210 4259 ft 108 kts
2026-05-08 04:43 40.78194 -111.96207 4228 ft 89 kts
2026-05-08 04:43 40.78633 -111.96203 4231 ft 30 kts 12°
2026-05-08 04:43 40.78806 -111.96119 4231 ft 19 kts 33°
2026-05-08 04:43 40.78850 -111.96045 4230 ft 9 kts 113°
2026-05-08 04:44 40.78787 -111.96002 4230 ft 14 kts 184°
2026-05-08 04:44 40.78682 -111.96004 4230 ft 17 kts 180°
2026-05-08 04:44 40.78521 -111.96004 4229 ft 28 kts 181°
2026-05-08 04:44 40.78327 -111.96003 4229 ft 27 kts 180°
2026-05-08 04:45 40.78145 -111.96003 4229 ft 25 kts 180°
2026-05-08 04:45 40.77976 -111.96003 4229 ft 23 kts 180°
2026-05-08 04:45 40.77843 -111.96040 4230 ft 17 kts 221°
2026-05-08 04:45 40.77762 -111.96057 4230 ft 9 kts 119°
2026-05-08 04:46 40.77760 -111.95967 4230 ft 11 kts 90°
2026-05-08 04:46 40.77759 -111.95873 4230 ft 8 kts 93°
2026-05-08 04:46 40.77744 -111.95854 4230 ft 2 kts 181°
2026-05-08 04:46 40.77733 -111.95854 4230 ft 0 kts 181°